Temperature
17 17 17 16 16 16 16 16 16 16 17 17 17 17 17 16 16 16 16 16 16 16 16 16 16 16 17 17 17 17 17 17 17 17 17 18 18 18 18 18 18 18 18
17 17 16 16 16 16 16 16 16 16 16 16 16 16 16 16 16 16 16 16 16 16 16 16 16 16 16 17 17 17 17 17 17 17 17 17 18 18 18 18 18 18 18
17 16 16 16 16 16 16 16 16 16 16 16 16 16 16 16 16 16 16 16 16 16 16 16 16 16 16 16 16 16 17 17 17 17 17 17 17 17 17 17 17 17 18
17 16 16 16 16 16 16 16 16 16 16 16 16 16 16 16 16 16 16 16 15 16 16 16 16 16 16 16 16 16 16 16 17 17 17 17 17 17 17 17 17 17 17
16 16 16 16 16 16 16 16 16 16 16 16 16 16 16 16 16 16 16 16 15 15 15 15 16 16 16 16 16 16 16 16 16 16 17 17 17 17 17 17 17 17 17
16 16 16 16 16 16 16 16 16 16 16 16 16 16 16 16 16 16 15 15 15 15 15 15 15 15 16 16 16 16 16 16 16 16 16 16 16 16 17 17 17 17 17
16 16 16 16 16 15 15 16 16 16 16 16 16 16 16 15 15 15 15 15 15 15 15 15 15 15 15 16 16 16 16 16 16 16 16 16 16 16 16 16 17 17 17
16 16 16 16 16 15 15 15 15 15 16 16 16 16 15 15 15 15 15 15 15 15 15 15 15 15 15 15 15 16 16 16 16 16 16 16 16 16 16 16 16 16 16
15 16 16 16 15 15 15 15 15 15 15 16 16 16 16 15 15 15 15 15 15 15 15 14 14 15 15 15 15 15 15 16 16 16 16 16 16 16 16 16 16 16 16
15 15 16 16 15 15 15 15 15 15 15 16 16 16 16 16 16 15 15 15 15 15 15 14 14 14 15 15 15 15 15 15 15 15 15 15 16 16 16 15 16 16 16
15 15 16 16 16 15 15 15 15 15 15 16 16 16 16 16 16 15 15 15 15 14 14 14 14 14 14 14 15 15 15 15 15 15 15 15 15 15 15 15 15 15 15
15 16 16 16 16 15 15 15 15 15 15 16 16 16 16 16 15 15 15 15 14 14 14 14 14 14 14 14 14 14 15 15 15 15 15 15 15 15 15 15 15 15 15
15 16 16 16 16 16 15 15 15 15 15 15 15 15 15 15 15 15 15 15 15 14 14 14 14 14 14 14 14 14 14 14 14 14 15 15 15 15 15 15 15 15 15
16 16 16 16 16 16 16 16 16 15 15 15 15 15 15 15 15 15 15 15 15 14 14 14 14 14 14 14 14 14 14 14 14 14 14 14 14 14 14 14 15 15 15
16 16 16 16 16 16 16 16 16 16 15 15 15 15 15 15 15 15 15 15 15 14 14 13 13 13 13 14 14 14 14 14 14 14 14 14 14 14 14 14 14 14 14
16 16 16 16 16 16 16 15 15 15 15 15 15 15 15 15 15 15 15 15 15 15 14 13 13 13 13 13 13 13 13 13 13 13 13 14 14 14 14 14 14 14 14
16 16 16 16 16 16 16 15 15 15 15 15 15 15 15 15 15 15 15 15 15 15 14 14 13 13 13 13 13 13 13 13 13 13 13 13 13 13 13 13 13 13 13
17 16 16 16 16 16 16 15 15 15 15 15 15 15 15 15 15 15 15 15 14 14 14 14 13 13 13 13 13 13 13 13 13 13 13 13 13 13 13 13 13 13 13
17 16 16 16 16 16 16 16 15 15 15 15 15 15 15 15 15 15 14 14 14 14 14 14 13 13 13 13 13 13 13 13 13 12 13 13 13 13 13 13 13 13 12
17 17 16 16 16 16 16 16 15 15 15 15 15 15 15 15 15 14 14 14 14 14 14 14 13 13 13 13 13 13 13 13 12 12 12 12 12 12 12 12 12 12 12
17 16 16 16 16 16 16 15 15 15 15 15 15 15 15 15 15 15 14 14 14 14 14 14 13 13 13 13 13 13 13 12 12 12 12 12 12 12 12 12 12 12 12
16 16 16 16 16 16 16 15 15 15 15 15 15 15 15 15 14 14 14 14 14 14 14 13 13 13 13 13 13 12 12 12 12 12 12 12 11 12 12 11 11 11 11
16 16 16 16 16 16 16 16 15 15 15 15 15 14 14 14 14 14 14 14 14 14 14 13 13 13 13 13 12 12 12 12 12 12 12 11 11 11 11 11 11 11 11
16 16 16 16 16 16 16 16 15 15 15 15 15 15 14 14 14 14 14 14 14 14 13 13 13 13 13 13 12 12 12 12 12 11 11 11 11 11 11 11 11 11 11
16 16 16 16 16 16 16 16 15 15 15 15 15 15 14 14 14 14 14 14 13 13 13 13 13 13 13 12 12 12 12 12 11 11 11 11 11 11 11 11 10 10 10
16 16 16 16 16 16 16 16 15 15 15 15 15 14 14 14 14 14 14 14 13 13 13 13 13 13 13 12 12 12 12 11 11 11 11 11 10 10 10 10 10 10 10
Wind_Speed
2 1 3 3 3 3 2 2 3 4 5 6 7 7 7 8 11 11 10 12 13 13 13 13 13 13 14 14 14 14 14 14 14 14 14 15 15 13 12 12 12 11 9
3 2 3 2 3 3 4 4 4 4 4 4 5 7 7 7 9 12 11 12 13 14 14 14 15 15 15 15 15 15 15 15 16 15 15 16 16 15 14 14 14 13 11
6 4 3 3 3 5 6 5 5 4 4 4 5 5 6 7 7 10 10 10 11 13 14 15 16 16 16 16 16 16 16 16 16 16 16 16 16 16 16 16 15 14 13
10 6 3 3 5 5 4 3 3 4 4 4 4 5 5 5 7 8 9 9 9 10 12 14 15 16 17 17 17 17 17 17 17 17 16 16 16 17 17 17 17 16 14
10 7 3 3 6 4 3 4 4 3 3 3 3 4 4 4 5 7 7 9 9 10 10 12 14 16 17 18 18 18 18 18 18 18 17 17 17 17 17 17 18 17 16
9 7 4 5 5 4 4 4 4 3 2 3 4 5 4 5 5 5 6 7 8 9 9 9 10 12 16 18 18 18 18 18 18 18 18 18 18 17 17 18 18 18 18
7 6 4 4 4 4 4 5 3 3 3 3 3 3 4 5 5 5 4 4 5 9 10 10 9 9 12 16 18 18 18 18 18 18 18 18 18 18 17 18 18 17 17
7 5 4 3 3 3 4 4 3 2 1 2 2 2 2 3 4 4 4 4 5 7 8 10 11 12 13 12 15 18 17 17 17 17 18 17 18 18 18 17 18 17 17
8 7 6 3 2 3 3 3 3 3 1 1 2 2 2 2 1 3 4 5 5 4 5 8 11 13 13 14 14 16 17 17 17 17 17 17 18 18 18 18 18 17 17
7 6 5 4 3 3 3 3 4 2 2 1 1 1 2 3 3 2 3 4 5 5 5 6 9 12 13 13 14 15 16 16 17 17 17 17 17 17 17 17 17 17 17
5 6 6 5 4 3 4 5 5 4 2 2 1 2 2 2 2 3 2 1 3 3 4 5 7 10 13 12 13 14 14 16 16 16 16 16 16 16 16 16 16 16 16
3 3 5 4 4 3 4 3 3 3 3 3 3 2 2 2 2 2 2 2 2 2 4 4 5 7 10 11 12 13 14 15 15 16 16 16 16 16 16 16 15 15 15
3 3 4 3 3 3 4 4 3 3 3 4 4 3 3 3 2 3 3 2 2 2 3 4 4 7 8 9 10 12 12 14 14 15 15 15 16 16 16 16 15 15 15
3 3 4 3 3 4 4 4 3 3 4 4 5 5 4 4 4 3 3 3 3 2 3 3 3 6 7 7 9 10 10 12 13 13 14 15 15 15 15 15 16 16 15
4 4 4 4 4 4 4 4 4 5 5 5 5 5 4 4 4 4 3 3 3 2 1 2 2 3 5 6 7 8 8 10 11 12 13 14 14 14 14 15 15 15 15
4 4 4 4 4 4 4 4 4 4 5 4 4 5 4 4 4 4 3 3 3 3 2 1 2 1 3 5 6 7 8 9 10 10 11 12 13 13 14 15 15 15 15
4 3 3 4 4 4 4 4 3 3 3 3 4 5 5 4 4 3 3 4 4 4 4 1 1 2 3 3 4 4 6 7 8 9 9 10 11 11 12 13 13 14 14
4 4 3 4 4 4 5 5 4 3 3 4 4 4 4 4 4 4 3 4 3 3 3 2 1 2 2 2 2 2 4 5 6 7 7 8 8 9 10 11 11 12 13
3 4 4 4 4 4 4 4 4 4 3 4 4 4 4 4 4 3 3 3 2 3 3 3 1 1 1 2 2 2 3 3 4 5 6 6 6 7 7 8 9 9 10
3 2 4 4 4 4 4 3 4 3 4 4 4 5 5 5 4 3 3 4 3 3 3 3 2 1 1 1 2 2 2 1 2 3 4 4 4 5 5 6 6 7 7
3 3 3 4 4 4 4 4 3 3 4 4 4 5 6 8 9 6 5 4 4 3 2 2 1 1 1 2 2 1 1 1 2 2 2 1 1 1 1 3 3 4 5
3 3 3 4 4 4 6 7 5 3 2 3 3 4 5 6 6 7 7 7 6 4 2 2 1 1 1 1 1 1 1 2 2 2 2 2 1 1 0 0 1 2 2
3 4 3 4 4 4 5 5 4 2 2 2 2 2 3 4 5 3 2 3 3 3 2 2 1 1 1 1 1 2 1 1 1 2 1 2 1 1 2 1 1 2 2
4 3 3 4 4 4 4 3 2 1 1 1 1 2 3 3 3 3 2 2 1 1 1 2 2 1 2 1 1 0 1 1 1 1 1 1 2 2 3 3 3 3 3
5 4 4 4 4 3 4 3 3 1 1 1 1 2 3 3 4 4 2 1 1 0 2 4 4 2 1 2 2 2 2 1 2 2 1 0 2 2 2 1 3 4 6
5 5 4 4 5 4 6 5 4 2 2 2 2 2 4 4 4 4 2 1 0 1 1 1 1 3 3 3 2 1 1 0 1 2 2 1 1 2 3 2 2 5 6
Wind_Direction
61 84 94 83 68 74 80 58 60 55 41 47 60 60 63 77 91 98 90 80 75 70 66 61 58 55 51 46 44 42 39 37 35 33 31 28 24 23 24 27 31 34 46
78 58 75 65 72 72 57 65 73 62 60 49 51 57 58 74 96 108 106 90 79 73 68 64 59 56 52 48 45 42 41 39 38 36 36 34 31 32 35 37 38 40 53
75 67 60 55 53 69 70 55 59 59 69 67 56 61 52 52 76 98 112 107 92 77 71 67 61 57 53 49 46 44 42 40 39 38 38 38 37 41 42 42 43 46 56
75 58 50 49 60 55 75 73 56 58 60 65 55 54 58 44 55 78 93 99 101 95 81 74 67 61 55 50 46 45 44 42 41 40 41 40 41 43 43 46 47 49 55
67 65 50 51 57 48 50 74 61 61 65 72 89 70 59 51 44 57 68 80 86 98 100 84 74 65 58 51 46 43 44 43 42 42 43 44 46 46 46 50 51 51 53
58 56 59 57 59 50 47 72 81 68 65 52 72 76 63 63 53 47 49 61 70 81 91 93 82 69 63 53 46 43 43 44 45 45 47 48 47 46 49 51 52 53 53
61 61 63 57 55 58 60 69 71 71 66 81 74 69 58 57 66 58 46 46 57 63 70 75 75 75 68 57 46 42 42 44 45 46 47 48 47 47 49 50 52 54 56
46 63 70 82 77 68 63 70 69 59 42 84 100 105 91 41 31 48 53 50 50 52 55 64 68 71 67 62 47 41 40 43 45 46 47 47 47 47 49 50 52 53 55
43 42 48 62 79 85 80 80 79 78 55 26 72 99 116 134 94 26 48 59 55 49 50 57 63 71 70 65 52 41 41 41 44 46 47 49 50 48 48 51 52 51 54
55 43 41 45 59 70 72 67 74 70 78 34 27 44 101 126 126 101 35 50 58 57 51 57 61 65 68 66 56 46 45 43 45 46 48 49 51 50 48 51 53 53 55
66 51 44 39 56 66 68 62 56 37 54 51 54 50 45 52 72 107 107 69 52 48 60 58 64 66 68 66 60 49 49 48 47 46 47 48 49 49 49 51 52 52 54
86 70 62 47 50 56 62 69 75 59 48 41 43 64 78 78 82 94 117 117 94 70 72 62 63 70 72 68 62 53 53 52 51 49 47 47 48 49 48 50 51 52 54
102 83 78 60 56 58 61 60 57 71 65 60 50 45 45 67 84 92 105 113 108 98 79 64 64 69 71 74 68 58 58 56 54 51 49 48 47 47 47 47 49 53 55
114 104 91 81 74 72 66 57 50 56 67 68 68 59 53 48 57 80 102 112 100 70 65 70 59 71 69 76 75 67 64 61 59 54 50 48 47 46 46 47 50 52 54
123 110 109 99 77 68 68 63 58 57 52 47 62 64 59 51 46 48 63 85 111 106 73 55 60 59 76 79 78 76 73 65 66 61 55 51 48 47 47 48 50 51 52
109 125 130 125 114 96 79 67 65 67 78 64 68 68 57 54 49 44 44 48 71 111 106 77 90 86 77 80 77 85 88 75 74 69 61 55 51 49 49 49 51 52 51
138 134 131 123 120 116 106 93 92 74 85 92 86 85 76 58 57 44 40 51 58 83 101 81 97 92 79 75 60 71 103 92 81 76 70 62 56 52 51 52 53 52 51
141 132 119 110 104 99 101 102 97 85 69 73 79 92 96 84 68 51 47 58 64 78 101 113 93 71 82 93 76 54 79 88 95 89 84 73 66 60 57 57 57 56 54
139 140 128 120 116 118 122 124 112 104 92 79 69 72 81 85 77 67 65 63 53 71 83 96 84 70 74 76 56 38 65 72 90 97 89 76 71 66 60 59 61 57 52
143 132 124 123 118 111 106 108 111 112 106 99 82 69 57 62 61 56 63 58 57 56 69 78 80 71 63 50 70 41 26 16 49 73 64 73 70 67 61 60 65 56 49
139 124 116 108 97 87 71 67 74 102 106 102 94 94 87 85 76 67 64 52 53 50 55 65 66 52 40 42 29 355 35 9 17 43 41 29 87 93 56 48 64 52 43
126 112 102 94 95 90 81 67 55 34 79 109 120 125 126 110 101 91 84 77 75 71 58 46 36 60 42 47 39 25 39 30 342 332 17 322 87 94 199 114 39 16 6
121 111 106 102 105 108 106 89 65 27 32 67 89 116 126 128 133 134 123 110 70 67 89 106 69 23 32 24 51 14 7 7 259 253 31 319 336 347 339 326 319 327 309
144 140 140 134 128 136 141 130 101 316 343 65 100 117 115 121 128 113 126 145 133 75 100 104 107 76 73 41 61 215 253 302 309 317 76 309 314 314 319 285 257 277 297
162 161 159 160 159 163 177 174 165 237 223 206 163 98 101 104 112 104 86 114 125 155 127 146 149 147 84 356 12 34 7 23 324 304 343 111 301 314 301 275 261 286 301
164 160 164 172 178 175 184 186 189 222 226 199 154 125 112 121 111 112 109 84 176 249 153 123 205 244 242 250 256 184 195 216 291 304 313 45 310 349 319 292 297 288 293
Height
1552 1552 1552 1552 1552 1553 1553 1553 1553 1553 1554 1554 1555 1555 1555 1555 1556 1556 1556 1556 1556 1555 1555 1554 1554 1553 1552 1551 1549 1548 1546 1544 1542 1540 1537 1534 1530 1526 1524 1524 1522 1520 1518
1553 1553 1553 1553 1553 1554 1554 1554 1555 1555 1555 1556 1556 1557 1557 1557 1557 1557 1558 1558 1557 1557 1556 1556 1555 1554 1553 1552 1551 1549 1548 1546 1543 1541 1538 1534 1530 1526 1525 1525 1523 1522 1520
1553 1554 1554 1554 1555 1555 1555 1556 1556 1557 1557 1558 1558 1559 1559 1559 1559 1559 1560 1559 1559 1559 1558 1558 1557 1556 1555 1554 1552 1551 1549 1547 1545 1542 1539 1536 1533 1530 1529 1528 1526 1525 1524
1554 1554 1555 1555 1556 1556 1557 1557 1557 1558 1559 1559 1560 1560 1560 1561 1561 1562 1562 1561 1561 1561 1560 1560 1559 1558 1557 1556 1554 1553 1551 1549 1546 1543 1540 1538 1536 1534 1533 1531 1530 1529 1528
1555 1555 1556 1556 1557 1557 1557 1558 1559 1559 1560 1560 1561 1562 1562 1562 1563 1564 1564 1564 1563 1563 1562 1561 1561 1560 1559 1558 1556 1555 1553 1550 1548 1545 1542 1540 1539 1538 1537 1535 1534 1533 1532
1557 1557 1557 1557 1558 1558 1559 1559 1560 1560 1561 1562 1563 1563 1564 1564 1565 1565 1565 1565 1565 1565 1564 1563 1562 1561 1560 1559 1558 1557 1555 1553 1550 1548 1545 1543 1542 1541 1540 1539 1538 1536 1536
1558 1558 1558 1558 1559 1559 1560 1560 1561 1562 1562 1563 1564 1564 1565 1566 1566 1567 1567 1567 1567 1566 1566 1565 1564 1563 1562 1561 1560 1559 1557 1555 1553 1551 1549 1548 1546 1545 1544 1542 1541 1540 1539
1559 1559 1559 1559 1560 1560 1561 1561 1562 1563 1563 1564 1565 1565 1566 1568 1568 1568 1568 1568 1568 1568 1567 1567 1566 1565 1564 1563 1562 1560 1559 1558 1556 1554 1552 1551 1549 1548 1547 1545 1544 1543 1542
1560 1560 1560 1561 1561 1561 1562 1562 1563 1563 1564 1565 1565 1566 1566 1567 1568 1570 1569 1569 1569 1569 1569 1568 1567 1566 1565 1564 1563 1562 1561 1560 1558 1557 1555 1554 1552 1551 1549 1548 1547 1546 1544
1561 1561 1561 1562 1562 1562 1563 1563 1564 1564 1565 1565 1566 1566 1567 1567 1568 1570 1571 1570 1570 1570 1570 1569 1568 1567 1567 1566 1565 1564 1563 1562 1560 1559 1558 1556 1555 1553 1552 1550 1549 1548 1547
1562 1562 1562 1563 1563 1563 1564 1564 1564 1565 1565 1566 1566 1566 1567 1567 1568 1569 1570 1571 1571 1571 1571 1570 1570 1569 1568 1567 1566 1565 1565 1563 1562 1561 1559 1558 1557 1555 1554 1552 1551 1549 1548
1563 1563 1563 1564 1564 1564 1565 1565 1565 1565 1565 1566 1566 1567 1567 1567 1568 1569 1570 1571 1571 1572 1572 1572 1571 1570 1570 1569 1568 1567 1566 1565 1564 1562 1561 1560 1558 1557 1556 1554 1552 1551 1550
1564 1564 1564 1564 1565 1565 1565 1566 1566 1566 1566 1566 1567 1567 1568 1568 1569 1569 1570 1571 1572 1574 1574 1573 1573 1572 1571 1570 1569 1568 1567 1566 1565 1564 1563 1562 1560 1559 1557 1555 1553 1552 1551
1565 1565 1565 1565 1566 1566 1566 1567 1567 1567 1567 1568 1568 1568 1568 1569 1569 1570 1571 1572 1573 1574 1575 1575 1574 1573 1572 1571 1570 1570 1569 1568 1567 1566 1564 1563 1562 1560 1559 1557 1555 1554 1553
1566 1566 1566 1566 1567 1567 1567 1567 1568 1568 1568 1569 1569 1569 1569 1570 1570 1571 1572 1572 1574 1574 1575 1575 1575 1574 1573 1572 1572 1571 1570 1569 1568 1567 1566 1564 1563 1562 1560 1558 1557 1556 1555
1567 1567 1567 1567 1568 1568 1568 1568 1569 1569 1570 1570 1570 1570 1570 1571 1571 1572 1572 1573 1573 1574 1575 1576 1576 1575 1575 1574 1573 1572 1571 1570 1569 1568 1567 1566 1564 1563 1561 1560 1559 1557 1557
1567 1568 1568 1569 1569 1569 1569 1570 1570 1571 1571 1571 1571 1571 1571 1572 1572 1573 1573 1574 1574 1575 1575 1576 1576 1576 1575 1575 1574 1573 1572 1571 1570 1569 1568 1567 1566 1564 1563 1561 1560 1559 1558
1568 1568 1569 1570 1570 1570 1571 1571 1571 1572 1572 1572 1573 1573 1573 1573 1573 1573 1574 1574 1575 1575 1576 1576 1577 1577 1576 1576 1575 1574 1573 1572 1571 1570 1569 1568 1566 1565 1564 1563 1561 1560 1559
1568 1569 1570 1570 1571 1571 1572 1572 1572 1573 1573 1573 1574 1574 1574 1574 1574 1574 1575 1575 1575 1576 1576 1577 1577 1577 1577 1576 1575 1575 1574 1573 1572 1571 1570 1568 1567 1566 1565 1564 1562 1561 1560
1568 1569 1570 1571 1572 1572 1572 1573 1573 1574 1574 1574 1574 1575 1575 1575 1575 1575 1575 1576 1576 1577 1577 1577 1577 1577 1577 1576 1576 1575 1574 1573 1572 1571 1570 1569 1568 1566 1565 1564 1563 1562 1561
1568 1569 1570 1571 1572 1572 1573 1574 1574 1574 1575 1575 1575 1575 1575 1575 1576 1576 1576 1576 1576 1577 1577 1577 1577 1577 1577 1576 1575 1574 1574 1573 1572 1571 1570 1569 1568 1566 1565 1564 1563 1562 1560
1568 1569 1570 1571 1571 1572 1573 1574 1574 1574 1575 1575 1575 1575 1575 1576 1576 1576 1576 1577 1577 1577 1577 1577 1577 1576 1576 1575 1575 1574 1573 1572 1571 1571 1570 1569 1568 1566 1565 1564 1563 1561 1560
1567 1568 1569 1570 1571 1572 1572 1573 1574 1574 1575 1575 1575 1575 1575 1575 1575 1576 1576 1576 1577 1577 1577 1577 1576 1576 1575 1575 1574 1573 1573 1572 1571 1570 1569 1568 1567 1565 1564 1563 1562 1560 1559
1565 1567 1568 1569 1570 1571 1572 1572 1573 1574 1574 1575 1575 1575 1575 1575 1575 1575 1575 1575 1575 1576 1576 1575 1575 1575 1574 1574 1573 1572 1572 1571 1570 1569 1569 1567 1566 1564 1563 1561 1560 1559 1557
1563 1565 1566 1568 1569 1570 1570 1571 1572 1573 1573 1574 1574 1574 1574 1574 1574 1574 1574 1574 1574 1574 1574 1574 1573 1573 1573 1572 1572 1571 1570 1569 1568 1567 1567 1565 1564 1562 1561 1559 1558 1557 1555
1562 1563 1565 1566 1567 1568 1569 1570 1570 1571 1571 1572 1572 1573 1573 1573 1573 1573 1573 1573 1573 1573 1572 1572 1572 1571 1570 1570 1569 1569 1568 1567 1566 1565 1565 1564 1562 1560 1558 1557 1555 1554 1552